DBAHN EDDS-LIML

Flight info

Callsign DBAHN
Flight time 0h 44m
Altitude 24000
Route ROTWE7H/07 ROTWE Y126 TUBLO/N0485F230 N850 NATOR DCT TRA N850 SOSON DCT ODINA
Aircraft C750/M-SBDE3FGHRWXY/S

Departure

Time 2026-04-30 19:53
Airport Stuttgart Airport (EDDS)

Arrival

Time 2026-04-30 20:38
Airport Milano Linate Airport (LIML)
Time Latitude Longitude Altitude Speed Heading
2026-04-30 19:20 48.69162 9.21140 1266 ft 0 kts 165°
2026-04-30 19:49 48.69127 9.21087 1267 ft 6 kts 247°
2026-04-30 19:49 48.69093 9.21081 1267 ft 7 kts 164°
2026-04-30 19:50 48.69043 9.21135 1264 ft 11 kts 109°
2026-04-30 19:50 48.69022 9.21260 1260 ft 14 kts 104°
2026-04-30 19:50 48.68998 9.21405 1255 ft 8 kts 104°
2026-04-30 19:50 48.68958 9.21460 1251 ft 7 kts 167°
2026-04-30 19:51 48.68944 9.21466 1254 ft 0 kts 165°
2026-04-30 19:51 48.68913 9.21479 1253 ft 9 kts 165°
2026-04-30 19:52 48.68861 9.21509 1249 ft 5 kts 120°
2026-04-30 19:52 48.68866 9.21557 1248 ft 0 kts 73°
2026-04-30 19:52 48.68866 9.21558 1248 ft 0 kts 73°
2026-04-30 19:53 48.68952 9.22003 1249 ft 105 kts 73°
2026-04-30 19:53 48.69200 9.23296 1719 ft 131 kts 73°
2026-04-30 19:53 48.69441 9.24615 2699 ft 125 kts 78°
2026-04-30 19:53 48.69652 9.25839 3357 ft 124 kts 79°
2026-04-30 19:54 48.69909 9.27224 3932 ft 145 kts 79°
2026-04-30 19:54 48.70198 9.28729 4748 ft 154 kts 77°
2026-04-30 19:54 48.70524 9.30423 5265 ft 182 kts 77°
2026-04-30 19:54 48.70906 9.32414 5745 ft 213 kts 76°
2026-04-30 19:55 48.71273 9.34710 6423 ft 233 kts 86°
2026-04-30 19:55 48.70973 9.37106 7505 ft 235 kts 111°
2026-04-30 19:55 48.69913 9.39016 8568 ft 248 kts 146°
2026-04-30 19:55 48.68200 9.39534 9704 ft 263 kts 183°
2026-04-30 19:56 48.66455 9.38598 10744 ft 271 kts 204°
2026-04-30 19:56 48.64868 9.37066 11582 ft 283 kts 220°
2026-04-30 19:56 48.63741 9.34469 12140 ft 306 kts 246°
2026-04-30 19:56 48.63039 9.31298 12530 ft 332 kts 253°
2026-04-30 19:57 48.62354 9.27882 12840 ft 356 kts 252°
2026-04-30 19:57 48.61593 9.24184 13033 ft 379 kts 255°
2026-04-30 19:57 48.60863 9.20331 13861 ft 382 kts 253°
2026-04-30 19:57 48.60131 9.16447 14588 ft 388 kts 255°
2026-04-30 19:58 48.59360 9.12523 15190 ft 393 kts 247°
2026-04-30 19:58 48.57842 9.09100 15909 ft 393 kts 229°
2026-04-30 19:58 48.56033 9.05978 16659 ft 397 kts 227°
2026-04-30 19:58 48.54225 9.02791 17370 ft 402 kts 230°
2026-04-30 19:59 48.52530 8.99408 18128 ft 407 kts 233°
2026-04-30 19:59 48.50823 8.95961 18844 ft 412 kts 231°
2026-04-30 19:59 48.47178 8.89165 20276 ft 421 kts 231°
2026-04-30 20:00 48.45360 8.85676 21018 ft 426 kts 232°
2026-04-30 20:00 48.43531 8.82126 21739 ft 431 kts 231°
2026-04-30 20:00 48.41661 8.78572 22450 ft 436 kts 231°
2026-04-30 20:00 48.39755 8.74993 23165 ft 441 kts 231°
2026-04-30 20:01 48.35909 8.67681 24301 ft 454 kts 231°
2026-04-30 20:01 48.33907 8.63888 24311 ft 473 kts 231°
2026-04-30 20:01 48.31817 8.59955 24308 ft 490 kts 231°
2026-04-30 20:02 48.27469 8.51766 24317 ft 508 kts 231°
2026-04-30 20:02 48.25250 8.47609 24320 ft 511 kts 230°
2026-04-30 20:03 48.20277 8.40917 23982 ft 469 kts 213°
2026-04-30 20:03 48.17458 8.38508 23696 ft 467 kts 205°
2026-04-30 20:03 48.14460 8.36705 23412 ft 463 kts 196°
2026-04-30 20:03 48.11337 8.35540 23306 ft 464 kts 188°
2026-04-30 20:04 48.08083 8.35006 23307 ft 477 kts 179°
2026-04-30 20:04 48.04739 8.35163 23311 ft 482 kts 171°
2026-04-30 20:04 48.01413 8.35915 23324 ft 483 kts 168°
2026-04-30 20:05 47.94709 8.37525 23326 ft 491 kts 168°
2026-04-30 20:05 47.91346 8.38326 23322 ft 490 kts 168°
2026-04-30 20:05 47.84662 8.39953 23318 ft 489 kts 168°
2026-04-30 20:06 47.81289 8.40755 23316 ft 490 kts 168°
2026-04-30 20:06 47.77928 8.41553 23310 ft 489 kts 168°
2026-04-30 20:06 47.74560 8.42364 23304 ft 492 kts 167°
2026-04-30 20:06 47.71190 8.43174 23304 ft 490 kts 168°
2026-04-30 20:07 47.67811 8.43898 23279 ft 492 kts 171°
2026-04-30 20:07 47.64398 8.44393 23273 ft 493 kts 172°
2026-04-30 20:07 47.57578 8.45373 23268 ft 492 kts 171°
2026-04-30 20:08 47.54171 8.45899 23270 ft 493 kts 172°
2026-04-30 20:08 47.50756 8.46400 23270 ft 493 kts 172°
2026-04-30 20:08 47.47346 8.46885 23271 ft 493 kts 172°
2026-04-30 20:08 47.43934 8.47386 23271 ft 493 kts 172°
2026-04-30 20:09 47.40524 8.47897 23273 ft 493 kts 172°
2026-04-30 20:09 47.37108 8.48397 23272 ft 493 kts 172°
2026-04-30 20:09 47.30280 8.49387 23267 ft 493 kts 172°
2026-04-30 20:10 47.23504 8.50380 23256 ft 493 kts 172°
2026-04-30 20:10 47.20092 8.50874 23252 ft 493 kts 172°
2026-04-30 20:10 47.16636 8.51377 23250 ft 492 kts 172°
2026-04-30 20:11 47.09869 8.52362 23231 ft 492 kts 172°
2026-04-30 20:11 47.06459 8.52856 23246 ft 493 kts 172°
2026-04-30 20:11 47.03037 8.53351 23242 ft 493 kts 172°
2026-04-30 20:12 46.96210 8.54336 23235 ft 493 kts 172°
2026-04-30 20:12 46.92794 8.54828 23238 ft 493 kts 172°
2026-04-30 20:12 46.89385 8.55319 23241 ft 493 kts 172°
2026-04-30 20:13 46.85967 8.55811 23241 ft 493 kts 172°
2026-04-30 20:13 46.82550 8.56301 23242 ft 493 kts 172°
2026-04-30 20:13 46.79146 8.56786 23245 ft 493 kts 172°
2026-04-30 20:13 46.75732 8.57275 23245 ft 497 kts 172°
2026-04-30 20:14 46.72290 8.57769 23242 ft 497 kts 172°
2026-04-30 20:14 46.68900 8.58247 23244 ft 489 kts 172°
2026-04-30 20:14 46.65502 8.58731 23245 ft 491 kts 172°
2026-04-30 20:14 46.62104 8.59223 23253 ft 490 kts 172°
2026-04-30 20:15 46.58704 8.59709 23264 ft 491 kts 172°
2026-04-30 20:15 46.55305 8.60187 23264 ft 491 kts 172°
2026-04-30 20:15 46.51903 8.60667 23266 ft 491 kts 172°
2026-04-30 20:15 46.48504 8.61151 23273 ft 491 kts 172°
2026-04-30 20:16 46.45098 8.61636 23278 ft 491 kts 172°
2026-04-30 20:16 46.41699 8.62114 23278 ft 489 kts 172°
2026-04-30 20:16 46.38309 8.62587 23288 ft 492 kts 172°
2026-04-30 20:16 46.34904 8.63071 23284 ft 492 kts 172°
2026-04-30 20:17 46.31505 8.63551 23287 ft 490 kts 172°
2026-04-30 20:17 46.28104 8.64027 23290 ft 491 kts 172°
2026-04-30 20:17 46.24702 8.64505 23290 ft 491 kts 172°
2026-04-30 20:17 46.21292 8.64984 23300 ft 492 kts 172°
2026-04-30 20:18 46.17893 8.65459 23297 ft 492 kts 172°
2026-04-30 20:18 46.14479 8.65945 23293 ft 491 kts 171°
2026-04-30 20:18 46.11145 8.66897 23282 ft 488 kts 162°
2026-04-30 20:18 46.07959 8.68558 23286 ft 485 kts 153°
2026-04-30 20:19 46.04976 8.70794 23287 ft 481 kts 148°
2026-04-30 20:19 46.03083 8.72283 22994 ft 456 kts 148°
2026-04-30 20:19 46.00390 8.74356 22456 ft 427 kts 148°
2026-04-30 20:19 45.97771 8.76395 21913 ft 424 kts 148°
2026-04-30 20:20 45.95193 8.78433 21389 ft 421 kts 147°
2026-04-30 20:20 45.92629 8.80443 20864 ft 418 kts 148°
2026-04-30 20:20 45.90118 8.82381 20349 ft 397 kts 148°
2026-04-30 20:20 45.87758 8.84201 19855 ft 373 kts 148°
2026-04-30 20:21 45.85542 8.85933 19411 ft 353 kts 147°
2026-04-30 20:21 45.83414 8.87600 18978 ft 345 kts 147°
2026-04-30 20:21 45.81318 8.89230 18548 ft 342 kts 148°
2026-04-30 20:21 45.79235 8.90842 18097 ft 338 kts 148°
2026-04-30 20:22 45.77174 8.92439 17673 ft 336 kts 148°
2026-04-30 20:22 45.75128 8.94025 17258 ft 333 kts 148°
2026-04-30 20:22 45.73120 8.95579 16846 ft 331 kts 148°
2026-04-30 20:22 45.71100 8.97139 16433 ft 329 kts 148°
2026-04-30 20:23 45.69093 8.98690 16021 ft 326 kts 148°
2026-04-30 20:23 45.67104 9.00225 15617 ft 324 kts 148°
2026-04-30 20:23 45.65127 9.01750 15211 ft 322 kts 148°
2026-04-30 20:23 45.63156 9.03267 14814 ft 321 kts 148°
2026-04-30 20:24 45.61197 9.04772 14419 ft 319 kts 149°
2026-04-30 20:24 45.59249 9.06266 14000 ft 317 kts 149°
2026-04-30 20:24 45.57313 9.07751 13587 ft 314 kts 149°
2026-04-30 20:24 45.55398 9.09219 13193 ft 311 kts 149°
2026-04-30 20:25 45.51736 9.12014 12439 ft 287 kts 150°
2026-04-30 20:25 45.49839 9.12879 11814 ft 291 kts 172°
2026-04-30 20:26 45.45912 9.13231 11118 ft 279 kts 174°
2026-04-30 20:26 45.42073 9.13693 10435 ft 274 kts 174°
2026-04-30 20:26 45.40179 9.13904 10083 ft 272 kts 174°
2026-04-30 20:27 45.36449 9.14318 9409 ft 267 kts 174°
2026-04-30 20:27 45.32761 9.14733 8759 ft 264 kts 174°
2026-04-30 20:28 45.29115 9.15141 8111 ft 261 kts 174°
2026-04-30 20:28 45.25503 9.15544 7484 ft 259 kts 174°
2026-04-30 20:29 45.22086 9.15923 6913 ft 239 kts 174°
2026-04-30 20:30 45.17192 9.16488 6063 ft 233 kts 171°
2026-04-30 20:30 45.14803 9.21445 5233 ft 220 kts 84°
2026-04-30 20:31 45.15273 9.27846 4410 ft 212 kts 73°
2026-04-30 20:32 45.18964 9.30483 3658 ft 221 kts 359°
2026-04-30 20:32 45.22043 9.30110 3362 ft 221 kts 358°
2026-04-30 20:33 45.23537 9.29946 3241 ft 212 kts 358°
2026-04-30 20:33 45.26488 9.29627 2982 ft 212 kts 358°
2026-04-30 20:33 45.27956 9.29468 2857 ft 210 kts 359°
2026-04-30 20:34 45.30831 9.29157 2604 ft 209 kts 359°
2026-04-30 20:34 45.33569 9.28875 2328 ft 194 kts 359°
2026-04-30 20:35 45.34904 9.28730 2067 ft 191 kts 359°
2026-04-30 20:35 45.36224 9.28586 1808 ft 189 kts 360°
2026-04-30 20:35 45.38737 9.28320 1297 ft 159 kts
2026-04-30 20:36 45.39752 9.28213 1090 ft 135 kts
2026-04-30 20:36 45.40659 9.28118 937 ft 130 kts 358°
2026-04-30 20:36 45.42406 9.27933 626 ft 127 kts 356°
2026-04-30 20:37 45.43288 9.27838 451 ft 125 kts 355°
2026-04-30 20:37 45.44119 9.27751 360 ft 111 kts 356°
2026-04-30 20:37 45.44705 9.27686 359 ft 64 kts 356°
2026-04-30 20:37 45.45135 9.27639 355 ft 59 kts 355°
2026-04-30 20:38 45.45401 9.27718 359 ft 17 kts 40°
2026-04-30 20:38 45.45435 9.27755 356 ft 4 kts 41°
2026-04-30 20:38 45.45460 9.27796 356 ft 6 kts 48°
2026-04-30 20:39 45.45553 9.27815 356 ft 0 kts
2026-04-30 20:40 45.45554 9.27815 356 ft 2 kts
2026-04-30 20:40 45.45577 9.27849 356 ft 9 kts 75°
2026-04-30 20:41 45.45577 9.27894 357 ft 0 kts 90°